Tracking 35274 objects as of 11-Sep-2026
HD Live streaming from Space Station
objects crossing your sky now

USA 82

Track USA 82 now!
USA 82 is classified as:


NORAD ID: 22009
Int'l Code: 1992-037A
Launch date: July 2, 1992
Source: United States (US)
Launch site: AIR FORCE EASTERN TEST RANGE (AFETR)

Super High Frequency (SHF) for U.S. government and military; sophisticated survivability enhancement; worldwide, longhaul coverage; X-band.
Your satellite tracking list
Your tracking list is empty




NASA's NSSDC Master Catalog

Two Line Element Set (TLE):
1 22009U 92037A   26253.41516242  .00000006  00000-0  00000+0 0  9992
2 22009  14.2767   9.0417 0005770  31.1780 328.3086  0.98810515 25983
Source of the keplerian elements: AFSPC